EW9037 Weather Reports


time (UTC)temp
F
wind
direction
speed
knots
gust
knots
rain 1hr
in
rain 24hr
in
rain mn
in
humidity
%
barometer
mb
20260906123020 73 9 2.6 5.2 0.00 0.00 0.00 93 1014.9
20260906121523 73 15 1.7 5.2 0.00 0.00 0.00 94 1014.6
20260906120024 72 9 1.7 3.5 0.00 0.00 0.00 95 1014.4
20260906114521 72 13 0.9 2.6 0.00 0.00 0.00 95 1014.1
20260906113018 71 13 1.7 3.5 0.00 0.00 0.00 96 1014.0
20260906111512 70 28 0.0 1.7 0.00 0.00 0.00 96 1013.8
20260906110006 70 351 0.0 0.0 0.00 0.00 0.00 96 1013.8
20260906104507 70 346 0.0 0.0 0.00 0.00 0.00 96 1013.7
20260906103026 70 193 0.0 0.0 0.00 0.00 0.00 96 1013.4
20260906101527 70 193 0.0 0.0 0.00 0.00 0.00 96 1013.4
20260906100025 70 193 0.0 0.0 0.00 0.00 0.00 96 1013.4
20260906094518 70 193 0.0 0.0 0.00 0.00 0.00 96 1013.2
20260906093027 70 193 0.0 0.0 0.00 0.00 0.00 96 1013.0
20260906091508 71 193 0.0 0.0 0.00 0.00 0.00 96 1012.9
20260906090007 70 193 0.0 0.0 0.00 0.00 0.00 96 1013.0
20260906084503 70 193 0.0 0.0 0.00 0.00 0.00 96 1012.7
20260906083004 70 193 0.0 0.0 0.00 0.00 0.00 95 1012.6
20260906081527 71 193 0.0 0.0 0.00 0.00 0.00 96 1012.6
20260906080023 71 193 0.0 0.0 0.00 0.00 0.00 95 1012.6
20260906074518 71 161 0.0 0.0 0.00 0.00 0.00 95 1012.6
20260906073014 71 99 0.0 0.0 0.00 0.00 0.00 94 1012.6
20260906071508 72 100 0.0 0.0 0.00 0.00 0.00 93 1012.6
20260906070007 72 97 0.0 0.0 0.00 0.00 0.00 94 1012.8
20260906064503 72 261 0.0 0.0 0.00 0.00 0.00 94 1012.7
20260906063028 73 298 0.0 0.0 0.00 0.00 0.00 94 1012.9
20260906061531 73 322 0.0 0.0 0.00 0.00 0.00 94 1013.2
20260906060023 72 279 0.0 0.0 0.00 0.00 0.00 94 1013.0
20260906054518 73 238 0.0 0.0 0.00 0.00 0.00 94 1013.0
20260906053019 73 217 0.0 0.0 0.00 0.00 0.00 94 1013.3
20260906051510 73 216 0.0 0.0 0.00 0.00 0.00 94 1013.1
20260906050005 73 161 0.0 0.0 0.00 0.00 0.00 94 1013.0
20260906044528 73 161 0.0 0.0 0.00 0.00 0.00 94 1012.9
20260906043026 73 161 0.0 0.0 0.00 0.00 0.00 94 1012.9
20260906041530 74 161 0.0 0.0 0.00 0.00 0.00 94 1012.7
20260906040017 75 161 0.0 0.0 0.00 0.00 0.00 93 1012.5
20260906034518 75 161 0.0 0.0 0.00 0.00 0.00 92 1012.7
20260906033016 75 161 0.0 0.0 0.00 0.00 0.00 92 1012.7
20260906031530 76 161 0.0 0.0 0.00 0.00 0.00 91 1012.9
20260906030029 76 228 0.0 0.0 0.00 0.00 0.00 91 1012.8
20260906024526 77 228 0.0 0.0 0.00 0.00 0.00 90 1012.9
20260906023020 77 242 0.0 0.0 0.00 0.00 0.00 89 1012.8
20260906021520 78 234 0.0 0.0 0.00 0.00 0.00 88 1012.5
20260906020012 79 267 0.0 0.0 0.00 0.00 0.00 88 1012.2
20260906014519 78 275 0.0 0.0 0.00 0.00 0.00 88 1011.9
20260906013032 79 315 0.0 0.0 0.00 0.00 0.00 87 1011.7
20260906011530 80 275 0.0 2.6 0.00 0.00 0.00 86 1011.8
20260906010030 79 308 0.0 0.0 0.00 0.00 0.00 87 1011.5
20260906004523 80 322 0.0 0.0 0.00 0.00 0.00 85 1011.4
20260906003020 82 322 0.0 0.0 0.00 0.00 0.00 82 1011.6
20260906001517 83 322 0.0 0.0 0.00 0.00 0.00 81 1011.8
20260906000013 84 347 0.0 0.0 0.00 0.00 0.00 80 1012.0
20260905234533 85 352 0.0 0.0 0.00 0.00 0.00 76 1012.0
20260905233029 87 352 0.0 0.0 0.00 0.00 0.00 72 1012.0
20260905231528 88 352 0.0 0.0 0.00 0.00 0.00 67 1011.9
20260905230026 90 352 0.0 0.9 0.00 0.00 0.00 64 1011.6
20260905224523 90 344 0.0 1.7 0.00 0.00 0.00 65 1011.6
20260905223022 89 317 0.0 1.7 0.00 0.00 0.00 66 1011.6
20260905221529 90 317 0.0 1.7 0.00 0.00 0.00 65 1011.6
20260905220034 91 302 0.0 1.7 0.00 0.00 0.00 62 1011.6
20260905214532 92 288 0.0 3.5 0.00 0.00 0.00 61 1011.7
20260905213034 93 254 1.7 5.2 0.00 0.00 0.00 58 1011.7
20260905211532 95 307 0.9 4.3 0.00 0.00 0.00 55 1011.7
20260905210029 95 323 1.7 3.5 0.00 0.00 0.00 54 1011.8
20260905204518 95 321 0.9 4.3 0.00 0.00 0.00 52 1012.0
20260905203016 95 235 1.7 4.3 0.00 0.00 0.00 54 1012.2
20260905201521 95 38 1.7 5.2 0.00 0.00 0.00 53 1012.4
20260905200009 95 197 1.7 5.2 0.00 0.00 0.00 54 1012.6
20260905194531 95 161 0.9 7.0 0.00 0.00 0.00 54 1012.7
20260905193027 94 227 2.6 7.0 0.00 0.00 0.00 56 1013.1
20260905191527 94 260 0.9 6.1 0.00 0.00 0.00 55 1013.3
20260905190021 92 56 0.9 4.3 0.00 0.00 0.00 57 1013.3
20260905184520 93 297 1.7 5.2 0.00 0.00 0.00 58 1013.6
20260905183014 91 182 0.0 5.2 0.00 0.00 0.00 58 1013.9
20260905181511 91 63 0.9 5.2 0.00 0.00 0.00 58 1014.0
20260905180031 92 237 2.6 5.2 0.00 0.00 0.00 60 1014.0
20260905174535 91 168 0.9 4.3 0.00 0.00 0.00 58 1014.3
20260905173037 89 190 4.3 7.8 0.00 0.00 0.00 61 1014.4
20260905171524 89 179 2.6 6.1 0.00 0.00 0.00 59 1014.4
20260905170034 88 151 0.9 7.0 0.00 0.00 0.00 63 1014.6
20260905164534 88 190 1.7 5.2 0.00 0.00 0.00 63 1014.9
20260905163034 88 171 3.5 6.1 0.00 0.00 0.00 62 1015.1
20260905161534 87 98 2.6 5.2 0.00 0.00 0.00 66 1015.3
20260905160034 86 33 0.9 7.0 0.00 0.00 0.00 1015.2
20260905154527 85 42 2.6 5.2 0.00 0.00 0.00 69 1015.3
20260905153026 84 94 1.7 8.7 0.00 0.00 0.00 70 1015.3
20260905151533 84 80 1.7 7.8 0.00 0.00 0.00 70 1015.6
20260905150037 83 53 3.5 7.8 0.00 0.00 0.00 72 1015.6
20260905144540 83 51 2.6 7.8 0.00 0.00 0.00 75 1015.8
20260905143012 81 110 4.3 7.8 0.00 0.00 0.00 76 1015.6
20260905141508 81 114 4.3 8.7 0.00 0.00 0.00 78 1015.7
20260905140004 81 55 3.5 8.7 0.00 0.00 0.00 81 1015.7
20260905134503 79 99 2.6 5.2 0.00 0.00 0.00 88 1015.8
20260905133024 77 38 3.5 7.0 0.00 0.00 0.00 90 1015.7
20260905131539 77 106 0.0 0.0 0.00 0.00 0.00 94 1015.2
20260905130016 75 151 0.0 0.9 0.00 0.00 0.00 95 1015.2
20260905124524 75 104 1.7 5.2 0.00 0.00 0.00 95 1015.4